This is the latest recevied weather packets stored in our database for station/object WX1NWA. If no packets are shown the sender has not sent any weather packets the latest 10 day(s).
| Time | Temp. | Humidity | Pressure | Rain* | Wind** | Luminosity | Snow |
|---|---|---|---|---|---|---|---|
| 1777899824 | 16.67° C | 64% | 1014.7 hPa | 0 mm | - | 175 W/m² | - |
| 1777899520 | 17.22° C | 61% | 1014.6 hPa | 0 mm | - | 164 W/m² | - |
| 1777899218 | 16.67° C | 62% | 1014.6 hPa | 0 mm | - | 193 W/m² | - |
| 1777898915 | 16.67° C | 63% | 1014.8 hPa | 0 mm | - | 183 W/m² | - |
| 1777898612 | 16.67° C | 63% | 1014.7 hPa | 0 mm | - | 107 W/m² | - |
| 1777898309 | 16.67° C | 64% | 1014.7 hPa | 0 mm | - | 90 W/m² | - |
| 1777898007 | 16.67° C | 63% | 1014.9 hPa | 0 mm | - | 115 W/m² | - |
| 1777897703 | 16.67° C | 64% | 1014.6 hPa | 0 mm | - | 95 W/m² | - |
| 1777897400 | 16.67° C | 63% | 1014.5 hPa | 0 mm | - | 86 W/m² | - |
| 1777897095 | 16.67° C | 63% | 1014.7 hPa | 0 mm | - | 88 W/m² | - |
| 1777896792 | 16.11° C | 62% | 1014.4 hPa | 0 mm | - | 69 W/m² | - |
| 1777896489 | 16.11° C | 64% | 1014.1 hPa | 0 mm | - | 56 W/m² | - |
| 1777896186 | 16.11° C | 64% | 1014.4 hPa | 0 mm | - | 47 W/m² | - |
| 1777895884 | 16.11° C | 63% | 1014.1 hPa | 0 mm | - | 39 W/m² | - |
| 1777895582 | 15.56° C | 63% | 1014 hPa | 0 mm | - | 31 W/m² | - |
| 1777895279 | 15.56° C | 63% | 1014.1 hPa | 0 mm | - | 23 W/m² | - |
| 1777894977 | 15.56° C | 65% | 1014.5 hPa | 0 mm | - | 17 W/m² | - |
| 1777894674 | 15.56° C | 65% | 1014.1 hPa | 0 mm | - | 13 W/m² | - |
| 1777894370 | 15.56° C | 64% | 1014.3 hPa | 0 mm | - | 8 W/m² | - |
| 1777894068 | 15.56° C | 63% | 1014.4 hPa | 0 mm | - | 5 W/m² | - |
| 1777893764 | 15.56° C | 64% | 1014.1 hPa | 0 mm | - | 3 W/m² | - |
| 1777893461 | 15.56° C | 63% | 1014.3 hPa | 0 mm | - | 0 W/m² | - |
| 1777893158 | 15.56° C | 64% | 1013.9 hPa | 0 mm | - | 0 W/m² | - |
| 1777892854 | 15.56° C | 62% | 1013.7 hPa | 0 mm | - | 0 W/m² | - |
| 1777892550 | 15.56° C | 62% | 1013.7 hPa | 0 mm | - | 0 W/m² | - |
* Rain latest hour (hover to see other rain measurements)
** Current wind speed in m/s (hover to see current wind gust speed)